OSCAR 7 (AO-7) 1 07530U 74089B 26130.50178213 -.00000036 00000+0 64321-4 0 9991 2 07530 101.9919 143.3535 0012117 201.3592 325.4500 12.53697435355798 PHASE 3B (AO-10) 1 14129U 83058B 26129.52219316 .00000202 00000+0 00000+0 0 9992 2 14129 25.8944 225.9972 6024432 105.0137 325.5502 2.05868845294693 UOSAT 2 (UO-11) 1 14781U 84021B 26130.49857841 .00000812 00000+0 88406-4 0 9994 2 14781 97.8035 96.5034 0006474 318.4160 41.6564 14.90693403251515 LUSAT (LO-19) 1 20442U 90005G 26130.50672645 .00000079 00000+0 44870-4 0 9995 2 20442 98.8874 151.2701 0010808 321.2305 38.8102 14.34111190896996 EYESAT A (AO-27) 1 22825U 93061C 26130.45059449 .00000055 00000+0 37998-4 0 9999 2 22825 98.6893 197.8742 0007909 203.8142 156.2676 14.30931771701600 ITAMSAT (IO-26) 1 22826U 93061D 26130.44124172 .00000047 00000+0 34784-4 0 9996 2 22826 98.6843 197.7785 0008729 187.3256 172.7801 14.31357626701914 RADIO ROSTO (RS15) 1 23439U 94085A 26130.24574372 -.00000050 00000+0 -22282-3 0 9998 2 23439 64.8196 4.5797 0154887 10.8118 349.6074 11.27583717291626 JAS-2 (FO-29) 1 24278U 96046B 26130.52967476 -.00000043 00000+0 -80959-5 0 9990 2 24278 98.5282 344.5517 0349603 194.0040 165.1209 13.53272304468070 TECHSAT 1B (GO-32) 1 25397U 98043D 26130.48428617 .00000045 00000+0 39678-4 0 9997 2 25397 99.0062 122.2942 0001136 18.3608 341.7611 14.24420892445960 ISS (ZARYA) 1 25544U 98067A 26130.45717135 .00006413 00000+0 12369-3 0 9992 2 25544 51.6310 126.8685 0007459 43.7479 316.4100 15.49173700565900 PCSAT (NO-44) 1 26931U 01043C 26130.30291095 .00000080 00000+0 60786-4 0 9998 2 26931 67.0516 342.2585 0006311 263.7333 96.3050 14.31941178285024 SAUDISAT 1C (SO-50) 1 27607U 02058C 26130.52697086 .00000761 00000+0 10746-3 0 9996 2 27607 64.5524 245.4960 0075632 269.3487 89.8953 14.82966481258873 CUTE-1 (CO-55) 1 27844U 03031E 26130.52442412 .00000213 00000+0 11124-3 0 9995 2 27844 98.6748 139.5562 0008405 298.6352 61.3981 14.24311987186319 CUBESAT XI-IV (CO-57) 1 27848U 03031J 26130.49403878 .00000172 00000+0 94879-4 0 9991 2 27848 98.6781 139.2691 0008585 319.4878 40.5660 14.23600267186015 MOZHAETS 4 (RS22) 1 27939U 03042A 26130.52676777 .00000350 00000+0 62206-4 0 9995 2 27939 98.3476 313.8238 0012002 33.7551 50.5843 14.73399717210005 CUBESAT XI-V 1 28895U 05043F 26130.41921488 .00000913 00000+0 15191-3 0 9995 2 28895 98.2944 285.2597 0013294 329.8467 30.1973 14.72531014 96192 CUTE-1.7+APD II (CO-65) 1 32785U 08021C 26130.45818640 .00002573 00000+0 16642-3 0 9992 2 32785 97.8263 111.1086 0009918 147.2361 212.9484 15.09092520979504 SEEDS II (CO-66) 1 32791U 08021J 26130.51498933 .00011518 00000+0 38149-3 0 9990 2 32791 97.7530 126.6561 0005077 89.2514 270.9308 15.31463799981522 YUBILEINY (RS30) 1 32953U 08025A 26130.51520573 .00000058 00000+0 34674-3 0 9996 2 32953 82.5069 18.8731 0020401 35.5611 324.6824 12.43178227815011 KKS-1 (KISEKI) 1 33499U 09002H 26130.47419775 .00000896 00000+0 11705-3 0 9994 2 33499 98.1193 52.3216 0009166 58.1331 302.0773 14.83024751930608 SWISSCUBE 1 35932U 09051B 26130.26440536 .00000677 00000+0 14363-3 0 9998 2 35932 98.4060 37.4904 0006394 342.8846 17.2138 14.62406862883612 BEESAT-1 1 35933U 09051C 26130.52809007 .00000559 00000+0 12214-3 0 9992 2 35933 98.3987 37.4724 0005225 359.7288 0.3908 14.61657599883688 ITUPSAT1 1 35935U 09051E 26130.21202151 .00000517 00000+0 11693-3 0 9991 2 35935 98.4072 36.3832 0007659 7.0853 353.0453 14.60382222883194 XIWANG-1 (HOPE-1) 1 36122U 09072B 26130.47232334 .00000023 00000+0 17626-3 0 9991 2 36122 100.4004 84.9117 0007214 324.9739 35.0899 13.16437621788041 O/OREOS (USA 219) 1 37224U 10062C 26130.49002248 .00001238 00000+0 12314-3 0 9995 2 37224 71.9686 165.7181 0013209 144.9858 215.2183 14.93586438111017 JUGNU 1 37839U 11058B 26130.25595451 .00000380 00000+0 58912-4 0 9992 2 37839 19.9592 178.8719 0018686 18.1508 53.5114 14.13765342753651 SRMSAT 1 37841U 11058D 26130.54135457 .00000380 00000+0 62198-4 0 9994 2 37841 19.9728 287.3360 0011732 149.5297 264.2116 14.11567308752496 STRAND-1 1 39090U 13009E 26130.45996088 .00000191 00000+0 78543-4 0 9996 2 39090 98.3917 311.6247 0008362 352.3020 7.8038 14.37140596691640 ZACUBE-1 (TSHEPISOSAT) 1 39417U 13066B 26130.47673855 .00003133 00000+0 24647-3 0 9992 2 39417 97.8121 92.6096 0042233 20.0990 340.1885 15.00893978675074 GOMX-1 1 39430U 13066Q 26130.52782594 .00001280 00000+0 19889-3 0 9997 2 39430 97.6513 333.3647 0128266 197.8565 161.8114 14.69311401664386 CUBEBUG-2 (LO-74) 1 39440U 13066AA 26130.41281770 .00002554 00000+0 24043-3 0 9999 2 39440 97.8887 79.2468 0058724 151.0910 209.3584 14.93481295671357 FUNCUBE-1 (AO-73) 1 39444U 13066AE 26130.46420095 .00005799 00000+0 36577-3 0 9992 2 39444 97.8258 101.1423 0035723 334.9133 25.0358 15.08996348673971 UWE-3 1 39446U 13066AG 26130.37977211 .00002188 00000+0 19192-3 0 9994 2 39446 97.8682 86.2160 0051084 85.6808 275.0248 14.96709697671925 UNISAT-6 1 40012U 14033C 26130.41159620 .00001847 00000+0 20357-3 0 9997 2 40012 97.7837 283.8050 0045042 191.2751 168.7461 14.88023120640548 DUCHIFAT-1 1 40021U 14033M 26130.13449356 .00053902 00000+0 71643-3 0 9997 2 40021 98.0512 184.1726 0005686 194.5902 165.5189 15.58020108649811 QB50P1 1 40025U 14033R 26130.50987584 .00005824 00000+0 29268-3 0 9998 2 40025 98.0986 139.0315 0008611 7.1794 352.9559 15.17673094647311 LILACSAT-2 1 40908U 15049K 26130.52466661 .00011349 00000+0 20255-3 0 9992 2 40908 97.4701 165.9629 0007877 45.0341 315.1548 15.50200823589910 FOX-1A (AO-85) 1 40967U 15058D 26130.45247855 .00002230 00000+0 20872-3 0 9995 2 40967 64.7765 36.2300 0128888 71.3905 290.1153 14.90745048107941 CAS-2T & KS-1Q 1 41847U 16066G 26130.49146959 .00000530 00000+0 84552-4 0 9997 2 41847 98.3825 206.6541 0340986 243.8534 112.7214 14.44588019499356 RADFXSAT (FOX-1B) 1 43017U 17073E 26130.16410511 .00006061 00000+0 26707-3 0 9991 2 43017 97.4765 358.1701 0154202 99.7936 262.0745 15.12020413459640 DIWATA-2B 1 43678U 18084H 26130.48883851 .00002029 00000+0 16706-3 0 9991 2 43678 98.1098 325.0831 0012150 301.3201 58.6832 15.00264233410560 ES'HAIL 2 1 43700U 18090A 26130.47388817 .00000154 00000+0 00000+0 0 9998 2 43700 0.0027 85.4161 0001659 357.3693 341.9164 1.00273446 27292 FOX-1CLIFF (AO-95) 1 43770U 18099N 26130.44552697 .00007220 00000+0 28417-3 0 9997 2 43770 97.4407 190.8512 0010399 118.8153 241.4130 15.25887512407469 ITASAT 1 43786U 18099AE 26130.13845262 .00004286 00000+0 21015-3 0 9999 2 43786 97.4059 182.4183 0014274 122.6036 237.6578 15.18562235407130 JY1SAT (JO-97) 1 43803U 18099AX 26130.23712112 .00010060 00000+0 32327-3 0 9992 2 43803 97.4152 192.9721 0006630 58.8486 301.3405 15.32451468407818 UWE-4 1 43880U 18111E 26130.51796500 .00020922 00000+0 46209-3 0 9998 2 43880 97.5852 57.2458 0010727 99.4200 260.8260 15.43832078404961 TIANYAN 01 1 44881U 19093C 26130.48341296 .00000791 00000+0 95483-4 0 9995 2 44881 97.7532 203.6338 0012788 205.7396 154.3185 14.86456725345819 RS-44 & BREEZE-KM R/B 1 44909U 19096E 26130.16530225 .00000008 00000+0 -90678-5 0 9990 2 44909 82.5245 4.9742 0216574 233.1345 124.9729 12.79748128297489 SALSAT 1 46495U 20068K 26130.52765537 .00005348 00000+0 19112-3 0 9992 2 46495 97.8862 131.3179 0011590 78.1139 282.1399 15.29241566309603 XW-3 (CAS-9) 1 50466U 21131B 26130.49831447 .00000635 00000+0 20995-3 0 9992 2 50466 98.4951 223.0962 0003662 194.3451 165.7635 14.41321856229682 GREENCUBE (IO-117) 1 53109U 22080E 26130.52028823 -.00000003 00000+0 00000+0 0 9994 2 53109 70.1439 311.3507 0008874 298.5000 61.4765 6.42583327 89641 UMKA 1 (RS40S) 1 57172U 23091G 26130.51851233 .00003917 00000+0 18279-3 0 9996 2 57172 97.5075 189.3684 0011387 247.4801 112.5229 15.20385446158286 CUBESX-HSE 3 (RS42S) 1 57178U 23091N 26130.51973602 .00008285 00000+0 28521-3 0 9991 2 57178 97.5111 195.6566 0010187 218.2244 141.8275 15.30263486158664 MONITOR-3 (RS58S) 1 57180U 23091Q 26130.46366113 .00006529 00000+0 24822-3 0 9990 2 57180 97.5104 193.6519 0010839 226.3393 133.6948 15.27081886158534 MONITOR-4 (RS57S) 1 57182U 23091S 26130.51058771 .00006623 00000+0 25101-3 0 9992 2 57182 97.5098 193.6678 0010808 226.5545 133.4796 15.27180378158547 MONITOR-2 (RS39S) 1 57184U 23091U 26130.49359613 .00003251 00000+0 16054-3 0 9991 2 57184 97.5098 189.0252 0009922 239.0913 120.9346 15.18558672158233 SVYATOBOR 1 (RS60S) 1 57187U 23091X 26130.49261896 .00005495 00000+0 21663-3 0 9993 2 57187 97.5109 194.1166 0008722 216.3888 143.6758 15.25969715158563 VIZARD-METEO (RS38S) 1 57189U 23091Z 26130.47783669 .00010415 00000+0 31051-3 0 9990 2 57189 97.5106 199.2412 0007424 193.5110 166.5935 15.34829332158903 POLYTECH-UNIVERSE 3 (R*) 1 57191U 23091AB 26130.45983657 .00003131 00000+0 15370-3 0 9993 2 57191 97.5074 188.4969 0014001 259.0428 100.9232 15.18755557158222 UTMN 2 (RS27S) 1 57203U 23091AP 26130.49293973 .00008011 00000+0 26883-3 0 9999 2 57203 97.5105 197.2165 0007821 201.8724 158.2184 15.31124890158770 KUZGTU 1 (RS47S) 1 57217U 23091AV 26130.47865740 .00007264 00000+0 26034-3 0 9996 2 57217 97.5084 194.5973 0010230 222.4827 137.5622 15.28996056158616 SONATE-2 1 59112U 24043Q 26130.35511514 .00023211 00000+0 33390-3 0 9997 2 59112 97.5494 278.5256 0006144 342.4520 17.6521 15.56053980122007 MESAT1 1 60209U 24125G 26130.54457287 .00033561 00000+0 42430-3 0 9998 2 60209 97.2354 347.2733 0009697 5.7834 354.3533 15.59409905103698 OOV-CUBE (TUBSAT-30) 1 60240U 24128F 26130.32531220 .00001449 00000+0 12150-3 0 9998 2 60240 61.9964 357.5767 0049148 125.4597 235.1096 15.02580188100429 COLIBRI-S (RS67S) 1 61746U 24199M 26130.54258213 .00014428 00000+0 29521-3 0 9991 2 61746 97.3052 4.0900 0010332 64.6776 295.5542 15.46165571131592 HORS 3 (RS81S) 1 61753U 24199U 26130.47475806 .00022978 00000+0 37641-3 0 9991 2 61753 97.3038 5.6306 0008570 70.9187 289.2993 15.52447294131703 HORS 4 (RS82S) 1 61754U 24199V 26130.47411447 .00028963 00000+0 41139-3 0 9990 2 61754 97.2988 6.6129 0007657 68.4429 291.7642 15.56338432131770 HORIZON (RS59S) 1 61757U 24199Y 26130.48385081 .01063881 67405-3 12247-2 0 9990 2 61757 97.2740 13.2357 0004788 171.2792 188.8575 16.09129190132202 ARCTICSAT 1 (RS74S) 1 61762U 24199AD 26130.50103757 .00155788 00000+0 69750-3 0 9990 2 61762 97.2921 11.8658 0004003 68.8153 291.3544 15.83759994132117 SIT-2086 1 61764U 24199AF 26130.47172968 .00014839 00000+0 26034-3 0 9997 2 61764 97.3004 6.2308 0008394 55.2517 304.9524 15.50609545128588 HYPERVIEW 1G (RS66S) 1 61772U 24199AP 26130.48694955 .00066758 00000+0 60969-3 0 9994 2 61772 97.2950 8.5500 0007812 70.6142 289.5963 15.67613570128759 ALTAIR (RS65S) 1 61779U 24199AW 26130.53826223 .00005758 00000+0 16440-3 0 9990 2 61779 97.3082 0.1485 0014834 83.3772 276.9160 15.36311645131336 ASRTU-1 (AO-123) 1 61781U 24199AY 26130.49518003 .00005324 00000+0 15797-3 0 9995 2 61781 97.3054 359.5118 0015902 85.3953 274.9107 15.35119723128148 SAMSAT-IONOSPHERE (RS7*) 1 61784U 24199BB 26130.50034360 .00029636 00000+0 45017-3 0 9999 2 61784 97.3009 5.5863 0010771 69.1127 291.1279 15.54465931131701 RTU MIREA 1 (RS51S) 1 61785U 24199BC 26130.47049264 .00032975 00000+0 45249-3 0 9992 2 61785 97.3000 6.2156 0010590 67.4298 292.8077 15.57214721128594 TEVEL2-4 1 63213U 25052D 26130.28034151 .00010705 00000+0 33509-3 0 9990 2 63213 97.3942 26.6413 0001244 180.8997 179.2244 15.33293442 64304 TEVEL2-5 1 63214U 25052E 26130.23156255 .00010554 00000+0 33201-3 0 9997 2 63214 97.3941 26.5507 0001244 179.2831 180.8414 15.33138780 64294 TEVEL2-6 1 63215U 25052F 26130.24297246 .00010980 00000+0 34570-3 0 9998 2 63215 97.3943 26.5470 0001293 188.3041 171.8180 15.33101514 64299 TEVEL2-1 1 63217U 25052H 26130.45533155 .00010492 00000+0 33549-3 0 9998 2 63217 97.3914 26.4266 0000783 211.7105 148.4090 15.32617585 64318 TEVEL2-3 1 63218U 25052J 26130.45122882 .00010638 00000+0 33960-3 0 9999 2 63218 97.3918 26.4400 0000762 213.1017 147.0177 15.32665284 64318 TEVEL2-2 1 63219U 25052K 26130.45582038 .00010545 00000+0 33709-3 0 9991 2 63219 97.3918 26.4290 0000785 218.4029 141.7157 15.32623823 64314 TEVEL2-9 1 63237U 25052AD 26130.45126253 .00009988 00000+0 33846-3 0 9995 2 63237 97.3979 25.8781 0004032 278.1752 81.9032 15.30751905 64255 TEVEL2-7 1 63238U 25052AE 26130.22379166 .00009089 00000+0 31083-3 0 9997 2 63238 97.3979 25.5823 0004151 279.4823 80.5949 15.30481470 64210 TEVEL2-8 1 63239U 25052AF 26130.23162129 .00009092 00000+0 31111-3 0 9994 2 63239 97.3982 25.5684 0004102 280.4691 79.6087 15.30463319 64215 HADES-ICM 1 63492U 25052BN 26129.70564069 .00570308 12819-3 18595-2 0 9992 2 63492 97.3748 33.5239 0008182 165.6972 194.4534 15.90607553 64713 INNOSAT 16 (RS92S7) 1 64878U 25155C 26130.47560380 .00004283 00000+0 17418-3 0 9996 2 64878 97.4542 97.7425 0009265 328.3274 31.7405 15.25045574 74921 GEOSCAN 6 (RS92S6) 1 64879U 25155D 26130.50455291 .00006924 00000+0 24518-3 0 9998 2 64879 97.4536 98.9387 0006203 324.1144 35.9678 15.29435002 75005 GEOSCAN 1 (RS92S1) 1 64880U 25155E 26130.52089019 .00007783 00000+0 27077-3 0 9990 2 64880 97.4532 99.0722 0006076 324.5668 35.5168 15.29971726 75010 239ALFEROV (RS61S) 1 64881U 25155F 26130.47593887 .00009328 00000+0 30499-3 0 9997 2 64881 97.4535 99.4688 0005474 325.6518 34.4369 15.31926360 75036 GEOSCAN 2 (RS92S2) 1 64890U 25155Q 26130.52133003 .00007618 00000+0 26283-3 0 9999 2 64890 97.4531 99.2100 0005069 308.7274 51.3513 15.30253601 75028 GEOSCAN 5 (RS92S5) 1 64891U 25155R 26130.47280361 .00009733 00000+0 31497-3 0 9997 2 64891 97.4528 99.5887 0004655 337.6542 22.4496 15.32249540 75049 GEOSCAN 4 (RS92S4) 1 64892U 25155S 26130.46048672 .00009429 00000+0 30397-3 0 9994 2 64892 97.4530 99.6147 0004703 338.3685 21.7357 15.32379838 75045 GEOSCAN 3 (RS92S3) 1 64893U 25155T 26130.50688248 .00011668 00000+0 35547-3 0 9999 2 64893 97.4520 99.9896 0004325 341.3140 18.7943 15.34128628 75070 INNOSAT 3 (RS92S0) 1 64894U 25155U 26130.49072476 .00023971 00000+0 57741-3 0 9998 2 64894 97.4478 101.1691 0002958 357.8390 2.2843 15.41255728 75157 KNACKSAT-2 1 67683U 98067XZ 26130.38377494 .00027876 00000+0 38679-3 0 9992 2 67683 51.6283 124.1286 0012604 58.7321 301.4903 15.56732909 14383